Weather History for Cincinnati, OH

Change the Weather History Date:

Wednesday, October 30, 2013

  Actual Average Record
Temperature  
Mean Temperature 57 °F -  
Max Temperature 63 °F 63 °F 82 °F (1971)
Min Temperature 51 °F 39 °F 25 °F (1966)
Degree Days  
Heating Degree Days 8    
Growing Degree Days 7 (Base 50)    
Moisture  
Dew Point 56 °F    
Average Humidity 97    
Maximum Humidity 100    
Minimum Humidity 88    
Precipitation  
Precipitation 0.18 in - - ()
Sea Level Pressure  
Sea Level Pressure 30.14 in    
Wind  
Wind Speed 1 mph (SSW)    
Max Wind Speed 8 mph    
Max Gust Speed -    
Visibility 3 miles    
Events Fog , Rain    
Averages and records for this station are not official NWS values.
T = Trace of Precipitation, MM = Missing Value Source: NWS Daily Summary

Daily Weather History Graph

Daily Weather History Graph

Search for Another Location

Airport:

Trip Planner

Search our weather history database for the weather conditions in past years. The results will help you decide how hot, cold, wet, or windy it might be!

Date:

Astronomy

Oct. 30, 2013 Rise Set
Actual Time 8:03 AM EDT 6:38 PM EDT
Civil Twilight 7:35 AM EDT 7:06 PM EDT
Nautical Twilight 7:04 AM EDT 7:37 PM EDT
Astronomical Twilight 6:33 AM EDT 8:08 PM EDT
Moon 3:53 AM EDT (10/30) 4:22 PM EDT (10/30)
Length of Visible Light 11h 30m
Length of Day
10h 35m
Waning Crescent, 17% of the Moon is Illuminated
Oct 30
Waning Crescent
Nov 3
New
Nov 10
First Quarter
Nov 17
Full
Nov 25
Last Quarter

Hourly Weather History & Observations

Time (EDT) Temp. Dew Point Humidity Pressure Visibility Wind Dir Wind Speed Gust Speed Precip Events Conditions
12:53 AM 51.1 °F 48.9 °F 92% 30.21 in 6.0 mi Calm Calm - N/A   Overcast
1:53 AM 51.1 °F 50.0 °F 96% 30.20 in 4.0 mi Calm Calm - 0.01 in Rain Light Rain
2:00 AM 51.8 °F 50.0 °F 94% 30.20 in 3.0 mi Calm Calm - 0.00 in Rain Light Rain
2:11 AM 51.8 °F 50.0 °F 94% 30.19 in 2.0 mi Calm Calm - 0.04 in Rain Heavy Rain
2:47 AM 51.8 °F 51.8 °F 100% 30.18 in 3.0 mi North 3.5 mph - 0.08 in Rain Light Rain
2:53 AM 52.0 °F 51.1 °F 97% 30.19 in 3.0 mi North 4.6 mph - 0.08 in Rain Light Rain
3:18 AM 51.8 °F 51.8 °F 100% 30.18 in 2.0 mi Calm Calm - 0.02 in Rain Light Rain
3:53 AM 51.1 °F 51.1 °F 100% 30.17 in 1.8 mi Calm Calm - 0.06 in Rain Rain
4:01 AM 51.8 °F 51.8 °F 100% 30.17 in 2.5 mi Calm Calm - 0.00 in Rain Light Rain
4:20 AM 51.8 °F 51.8 °F 100% 30.16 in 1.8 mi Calm Calm - 0.00 in Rain Light Rain
4:31 AM 51.8 °F 51.8 °F 100% 30.16 in 2.0 mi Calm Calm - 0.01 in Rain Light Rain
4:53 AM 51.1 °F 51.1 °F 100% 30.16 in 1.8 mi Calm Calm - 0.01 in Rain Light Rain
5:21 AM 51.8 °F 51.8 °F 100% 30.15 in 2.0 mi Calm Calm - 0.00 in Rain Light Rain
5:44 AM 51.8 °F 51.8 °F 100% 30.16 in 1.8 mi Calm Calm - 0.01 in Rain Light Rain
5:53 AM 52.0 °F 52.0 °F 100% 30.17 in 1.5 mi Calm Calm - 0.01 in Rain Light Rain
6:30 AM 51.8 °F 51.8 °F 100% 30.17 in 2.0 mi Calm Calm - 0.01 in   Overcast
6:39 AM 51.8 °F 51.8 °F 100% 30.17 in 1.5 mi Calm Calm - 0.01 in   Overcast
6:53 AM 53.1 °F 52.0 °F 96% 30.17 in 1.8 mi Calm Calm - 0.01 in   Overcast
7:13 AM 53.6 °F 53.6 °F 100% 30.17 in 2.0 mi Calm Calm - N/A   Overcast
7:19 AM 53.6 °F 53.6 °F 100% 30.17 in 1.8 mi Calm Calm - N/A   Overcast
7:53 AM 53.1 °F 52.0 °F 96% 30.17 in 1.5 mi Calm Calm - N/A   Overcast
8:31 AM 53.6 °F 53.6 °F 100% 30.17 in 1.0 mi Calm Calm - N/A   Overcast
8:39 AM 53.6 °F 53.6 °F 100% 30.17 in 0.5 mi Calm Calm - N/A Fog Fog
8:53 AM 53.1 °F 53.1 °F 100% 30.17 in 0.8 mi Calm Calm - N/A   Overcast
9:02 AM 53.6 °F 53.6 °F 100% 30.17 in 1.2 mi Calm Calm - N/A   Overcast
9:15 AM 55.4 °F 55.4 °F 100% 30.18 in 2.5 mi SW 3.5 mph - N/A   Overcast
9:26 AM 55.4 °F 55.4 °F 100% 30.18 in 3.0 mi Calm Calm - N/A   Overcast
9:33 AM 55.4 °F 55.4 °F 100% 30.18 in 2.0 mi Calm Calm - N/A   Overcast
9:44 AM 55.4 °F 55.4 °F 100% 30.18 in 2.0 mi Calm Calm - N/A   Overcast
9:53 AM 57.0 °F 55.0 °F 93% 30.19 in 2.0 mi Calm Calm - N/A   Overcast
10:53 AM 57.9 °F 55.9 °F 93% 30.19 in 2.0 mi Calm Calm - N/A   Overcast
11:53 AM 59.0 °F 57.0 °F 93% 30.18 in 2.0 mi Calm Calm - N/A   Overcast
12:29 PM 60.8 °F 57.2 °F 88% 30.18 in 5.0 mi Calm Calm - N/A   Overcast
12:53 PM 60.1 °F 57.9 °F 93% 30.17 in 5.0 mi SSE 3.5 mph - N/A   Overcast
1:53 PM 61.0 °F 59.0 °F 93% 30.14 in 5.0 mi Calm Calm - N/A   Overcast
2:07 PM 60.8 °F 59.0 °F 94% 30.13 in 2.0 mi Calm Calm - N/A   Overcast
2:53 PM 61.0 °F 60.1 °F 97% 30.11 in 2.0 mi Calm Calm - N/A   Overcast
3:53 PM 62.1 °F 60.1 °F 93% 30.11 in 2.0 mi Calm Calm - N/A   Overcast
4:53 PM 62.1 °F 61.0 °F 96% 30.09 in 3.0 mi Calm Calm - N/A   Overcast
5:01 PM 62.6 °F 60.8 °F 94% 30.09 in 4.0 mi Calm Calm - N/A   Overcast
5:53 PM 62.1 °F 61.0 °F 96% 30.09 in 3.0 mi Calm Calm - N/A   Overcast
6:53 PM 61.0 °F 60.1 °F 97% 30.09 in 4.0 mi Calm Calm - N/A   Overcast
7:07 PM 60.8 °F 60.8 °F 100% 30.08 in 3.0 mi Calm Calm - N/A   Overcast
7:16 PM 60.8 °F 60.8 °F 100% 30.09 in 2.0 mi Calm Calm - N/A   Overcast
7:37 PM 60.8 °F 60.8 °F 100% 30.09 in 3.0 mi Calm Calm - N/A   Overcast
7:53 PM 62.1 °F 61.0 °F 96% 30.09 in 5.0 mi Calm Calm - N/A   Overcast
8:45 PM 60.8 °F 60.8 °F 100% 30.08 in 3.0 mi Calm Calm - N/A   Overcast
8:53 PM 61.0 °F 60.1 °F 97% 30.08 in 3.0 mi Calm Calm - N/A   Mostly Cloudy
9:05 PM 60.8 °F 59.0 °F 94% 30.07 in 1.5 mi Calm Calm - N/A   Mostly Cloudy
9:28 PM 60.8 °F 60.8 °F 100% 30.06 in 3.0 mi Calm Calm - N/A   Overcast
9:53 PM 62.1 °F 61.0 °F 96% 30.05 in 5.0 mi SSW 3.5 mph - N/A   Mostly Cloudy
10:53 PM 63.0 °F 61.0 °F 93% 30.05 in 6.0 mi SSW 4.6 mph - N/A   Mostly Cloudy
11:53 PM 62.1 °F 61.0 °F 96% 30.03 in 6.0 mi South 8.1 mph - N/A   Scattered Clouds